Location: Caltech
(34.1382°N, 118.1253°W)
Time: 18:07:59
(UTC-07:00)

Cosmos 1697 Rocket - Visible Passes

Search period start: 26 August 2016 00:00
Search period end: 05 September 2016 00:00
Orbit: 833 x 843 km, 71.0° (Epoch: 25 August)

Date Brightness Start Highest point End Pass type
(mag) Time Alt. Az. Time Alt. Az. Time Alt. Az.
26 Aug 6.1 05:41:09 10° NE 05:42:33 11° NE 05:43:57 10° ENE visible
26 Aug 3.1 20:24:50 10° S 20:30:01 39° ESE 20:35:13 10° NE visible
26 Aug 4.8 22:09:28 10° WSW 22:14:02 25° WNW 22:18:38 10° N visible
27 Aug 3.2 20:08:50 10° SSE 20:13:55 36° ESE 20:19:01 10° NE visible
27 Aug 4.7 21:53:10 10° WSW 21:57:53 27° WNW 22:02:37 10° N visible
28 Aug 3.3 19:52:50 10° SSE 19:57:49 33° ESE 20:02:48 10° NE visible
28 Aug 4.6 21:36:53 10° WSW 21:41:43 29° WNW 21:46:34 10° N visible
29 Aug 4.5 21:20:36 10° WSW 21:25:33 31° WNW 21:30:32 10° N visible
30 Aug 4.4 21:04:20 10° SW 21:09:24 33° WNW 21:14:29 10° N visible
31 Aug 3.5 06:01:06 10° NNW 06:06:39 58° ENE 06:12:09 10° SE visible
31 Aug 4.3 20:48:05 10° SW 20:53:15 36° WNW 20:58:25 10° N visible
01 Sep 3.6 05:45:01 10° N 05:50:31 54° ENE 05:55:58 10° SE visible
01 Sep 4.2 20:31:51 10° SW 20:37:06 39° WNW 20:42:22 10° N visible
02 Sep 3.7 05:28:56 10° N 05:34:22 49° ENE 05:39:47 10° SE visible
02 Sep 4.1 20:15:38 10° SW 20:20:58 42° WNW 20:26:18 10° N visible
03 Sep 3.9 05:12:50 10° N 05:18:14 46° ENE 05:23:34 10° SE visible
03 Sep 4.0 19:59:25 10° SW 20:04:49 45° WNW 20:10:14 10° N visible
04 Sep 4.0 04:56:46 10° N 05:02:05 42° ENE 05:07:22 10° SE visible
04 Sep 3.8 19:43:13 10° SW 19:48:40 49° WNW 19:54:09 10° N visible
